Flag Weather past 2 weeks in Giessen, Hesse, Germany

Now
30 °F

Fog.


Feels Like: 30 °F
Forecast: 31 / 41 °F
Wind: 2 mph from Northeast

Location: Giessen

Current Time: Nov 26, 2014 at 7:26:06 AM

Latest Report: Nov 26, 2014 at 7:00 AM


Visibility: 2 mi

Pressure: 30.14 "Hg

Humidity: 100%

Dew point: 30 °F

Location of GiessenLocation

Historic Weather in Giessen — Graph

°F

Giessen temperature yesterday

Maximum temperature yesterday: 41 °F (at 3:00 PM)
Minimum temperature yesterday: 29 °F (at 4:00 AM)
Average temperature yesterday: 33 °F

Past Weeks' High & Low Weather Summary

 TemperatureHumidityPressure
High53 °F (Nov 13, 3:00 PM)100% (Nov 11, 6:00 AM)30.39 "Hg (Nov 11, 6:00 AM)
Low29 °F (Nov 25, 4:00 AM)70% (Nov 21, 1:00 PM)29.50 "Hg (Nov 16, 4:00 AM)
Average44 °F94%29.98 "Hg
* Reported Nov 11 6:00 AM — Nov 26 6:00 AM, Giessen, Weather by CustomWeather, © 2014

Note: Actual official high and low records may vary slightly from our data, if they occured in-between our weather recording intervals... More about our weather records

Advertising

Giessen weather history for previous 24 hours

 ConditionsComfort  
Time TempWeatherWind HumidityBarometerVisibility
6:00 AM
Nov 26
32 °FFog.3 mph100%30.14 "Hg4 mi
5:00 AM31 °FFog.2 mph100%30.15 "Hg2 mi
4:00 AM32 °FFog.3 mph100%30.16 "Hg2 mi
3:00 AM31 °FFog.2 mph100%30.18 "Hg1 mi
2:00 AM31 °FFog.2 mph100%30.19 "Hg1 mi
1:00 AM32 °FFog.2 mph100%30.21 "Hg2 mi
12:00 AM32 °FFog.2 mph100%30.22 "Hg2 mi
11:00 PM
Nov 25
32 °FFog.2 mph100%30.23 "Hg3 mi
10:00 PM32 °FFog.3 mph100%30.24 "Hg3 mi
9:00 PM33 °FFog.3 mph100%30.24 "Hg4 mi
8:00 PM34 °FOvercast.3 mph100%30.24 "Hg6 mi
7:00 PM36 °FOvercast.3 mph97%30.24 "Hg10 mi
6:00 PM36 °FOvercast.5 mph96%30.24 "Hg13 mi
5:00 PM37 °FPassing clouds.3 mph95%30.24 "Hg12 mi
4:00 PM40 °FSunny.5 mph88%30.25 "Hg17 mi
3:00 PM41 °FSunny.5 mph87%30.26 "Hg16 mi
2:00 PM40 °FSunny.5 mph91%30.28 "Hg13 mi
1:00 PM39 °FSunny.5 mph100%30.30 "Hg8 mi
12:00 PM36 °FSunny.5 mph100%30.32 "Hg7 mi
11:00 AM34 °FPassing clouds.5 mph100%30.34 "Hg4 mi
10:00 AM32 °FPartly sunny.3 mph100%30.35 "Hg0 mi
9:00 AM31 °FLow clouds.2 mph100%30.35 "Hg0 mi
8:00 AM30 °FPartly sunny.1 mph100%30.35 "Hg0 mi
7:00 AM30 °FLow clouds.2 mph100%30.35 "Hg0 mi
Weather by CustomWeather, © 2014

See weather overviewHow to use our weather pages